This is the latest recevied weather packets stored in our database for station/object KI4MRC. If no packets are shown the sender has not sent any weather packets the latest 10 day(s).
| Time | Temp. | Humidity | Pressure | Rain* | Wind** | Luminosity | Snow |
|---|---|---|---|---|---|---|---|
| 1777549167 | 21.11° C | 98% | 1013.2 hPa | 0 mm | - | 80 W/m² | - |
| 1777548864 | 20.56° C | 98% | 1013 hPa | 0 mm | - | 76 W/m² | - |
| 1777548561 | 20.56° C | 98% | 1013 hPa | 0 mm | - | 70 W/m² | - |
| 1777548258 | 20.56° C | 98% | 1012.8 hPa | 0 mm | - | 51 W/m² | - |
| 1777547954 | 20° C | 98% | 1012.8 hPa | 0 mm | - | 35 W/m² | - |
| 1777547650 | 20° C | 98% | 1012.7 hPa | 0 mm | - | 19 W/m² | - |
| 1777547347 | 20° C | 98% | 1012.7 hPa | 0 mm | - | 13 W/m² | - |
| 1777547045 | 20° C | 98% | 1012.6 hPa | 0 mm | - | 11 W/m² | - |
| 1777546742 | 20° C | 98% | 1012.6 hPa | 0 mm | - | 9 W/m² | - |
| 1777546439 | 20° C | 98% | 1012.6 hPa | 0 mm | - | 6 W/m² | - |
| 1777546136 | 20° C | 97% | 1012.5 hPa | 0 mm | - | 4 W/m² | - |
| 1777545831 | 20° C | 97% | 1012.6 hPa | 0 mm | - | 2 W/m² | - |
| 1777545529 | 20° C | 97% | 1012.4 hPa | 0 mm | - | 1 W/m² | - |
| 1777545225 | 20° C | 97% | 1012.4 hPa | 0 mm | - | 0 W/m² | - |
| 1777544924 | 20° C | 97% | 1012.6 hPa | 0 mm | - | 0 W/m² | - |
| 1777544619 | 20° C | 97% | 1012.7 hPa | 0 mm | - | 0 W/m² | - |
| 1777544316 | 20° C | 97% | 1012.4 hPa | 0 mm | - | 0 W/m² | - |
| 1777544013 | 20° C | 97% | 1012.5 hPa | 0 mm | - | 0 W/m² | - |
| 1777543710 | 20° C | 97% | 1012.7 hPa | 0 mm | - | 0 W/m² | - |
| 1777543406 | 20° C | 97% | 1012.3 hPa | 0 mm | - | 0 W/m² | - |
| 1777543101 | 20.56° C | 97% | 1012.4 hPa | 0 mm | - | 0 W/m² | - |
| 1777542798 | 20° C | 97% | 1012.3 hPa | 0 mm | - | 0 W/m² | - |
| 1777542495 | 20° C | 96% | 1012.3 hPa | 0 mm | - | 0 W/m² | - |
| 1777542190 | 20.56° C | 96% | 1012.4 hPa | 0 mm | - | 0 W/m² | - |
| 1777541888 | 20.56° C | 96% | 1012.4 hPa | 0 mm | - | 0 W/m² | - |
* Rain latest hour (hover to see other rain measurements)
** Current wind speed in m/s (hover to see current wind gust speed)